When you browse on this site, cookies collect data to enhance your experience and personalize the content and advertising you see.
Visit our Privacy Policy to learn more. By continuing to use the site, you agree to this use of cookies and data.

Meteo pe oră la Dzierzazna

Astăzi, 28 Septembrie, Luni

Timp Temperatura Precipitaţii Vânt Presiune Umiditate
00:00 +9°C° 0 mm 3 m/s 747 mmHg 81%
01:00 +8°C° 0 mm 3 m/s 747 mmHg 82%
02:00 +8°C° 0 mm 3 m/s 747 mmHg 82%
03:00 +8°C° 0 mm 3 m/s 747 mmHg 82%
04:00 +8°C° 0 mm 3 m/s 748 mmHg 82%
05:00 +8°C° 0 mm 3 m/s 748 mmHg 80%
06:00 +9°C° 0 mm 3 m/s 748 mmHg 78%
07:00 +9°C° 0 mm 3 m/s 749 mmHg 76%
08:00 +11°C° 0 mm 3 m/s 749 mmHg 70%
09:00 +12°C° 0 mm 3 m/s 749 mmHg 65%
10:00 +14°C° 0 mm 3 m/s 749 mmHg 60%
11:00 +14°C° 0 mm 3 m/s 748 mmHg 60%
12:00 +14°C° 0 mm 3 m/s 748 mmHg 61%
13:00 +14°C° 0 mm 3 m/s 748 mmHg 61%
14:00 +14°C° 0 mm 3 m/s 748 mmHg 63%
15:00 +14°C° 0 mm 3 m/s 748 mmHg 65%
16:00 +14°C° 0 mm 3 m/s 748 mmHg 67%
17:00 +14°C° 0 mm 3 m/s 748 mmHg 68%
18:00 +15°C° 0 mm 2 m/s 748 mmHg 69%
19:00 +14°C° 0 mm 2 m/s 748 mmHg 70%
20:00 +14°C° 0 mm 2 m/s 748 mmHg 73%
21:00 +13°C° 0 mm 3 m/s 748 mmHg 75%
22:00 +13°C° 0 mm 3 m/s 748 mmHg 78%
23:00 +14°C° 0 mm 2 m/s 748 mmHg 80%

Mâine, 29 Septembrie, Marţi

Timp Temperatura Precipitaţii Vânt Presiune Umiditate
00:00 +14°C° 0 mm 2 m/s 748 mmHg 82%
01:00 +14°C° 0 mm 2 m/s 748 mmHg 84%
02:00 +14°C° 0 mm 2 m/s 748 mmHg 85%
03:00 +14°C° 0 mm 2 m/s 747 mmHg 85%
04:00 +14°C° 0 mm 2 m/s 747 mmHg 85%
05:00 +14°C° 0 mm 2 m/s 747 mmHg 85%
06:00 +12°C° 0 mm 3 m/s 747 mmHg 85%
07:00 +12°C° 0 mm 3 m/s 748 mmHg 85%
08:00 +13°C° 0 mm 3 m/s 748 mmHg 81%
09:00 +14°C° 0 mm 3 m/s 748 mmHg 76%
10:00 +16°C° 0 mm 3 m/s 748 mmHg 71%
11:00 +16°C° 0 mm 3 m/s 748 mmHg 71%
12:00 +17°C° 0 mm 3 m/s 748 mmHg 70%
13:00 +17°C° 0 mm 3 m/s 748 mmHg 69%
14:00 +16°C° 0.3 mm 3 m/s 748 mmHg 73%
15:00 +16°C° 0.3 mm 2 m/s 748 mmHg 78%
16:00 +15°C° 0.3 mm 2 m/s 748 mmHg 82%
17:00 +15°C° 0.9 mm 2 m/s 748 mmHg 85%
18:00 +13°C° 0.9 mm 3 m/s 748 mmHg 89%
19:00 +13°C° 0.9 mm 3 m/s 749 mmHg 92%
20:00 +13°C° 0.4 mm 3 m/s 748 mmHg 92%
21:00 +13°C° 0.4 mm 3 m/s 748 mmHg 93%
22:00 +14°C° 0.4 mm 2 m/s 748 mmHg 93%
23:00 +13°C° 0.1 mm 3 m/s 748 mmHg 93%

Poimâine, 30 Septembrie, Miercuri

Timp Temperatura Precipitaţii Vânt Presiune Umiditate
00:00 +13°C° 0.1 mm 3 m/s 748 mmHg 93%
01:00 +13°C° 0.1 mm 3 m/s 748 mmHg 93%
02:00 +13°C° 0 mm 3 m/s 748 mmHg 92%
03:00 +13°C° 0 mm 3 m/s 748 mmHg 91%
04:00 +13°C° 0 mm 3 m/s 748 mmHg 90%
05:00 +13°C° 0.1 mm 2 m/s 748 mmHg 89%
06:00 +13°C° 0.1 mm 2 m/s 748 mmHg 88%
07:00 +13°C° 0.1 mm 2 m/s 748 mmHg 87%
08:00 +13°C° 0 mm 3 m/s 748 mmHg 83%
09:00 +14°C° 0 mm 3 m/s 748 mmHg 78%
10:00 +15°C° 0 mm 4 m/s 748 mmHg 74%
11:00 +15°C° 0 mm 4 m/s 748 mmHg 74%
12:00 +15°C° 0 mm 4 m/s 748 mmHg 74%
13:00 +15°C° 0 mm 4 m/s 747 mmHg 74%
14:00 +15°C° 0 mm 4 m/s 747 mmHg 74%
15:00 +15°C° 0 mm 4 m/s 747 mmHg 74%
16:00 +17°C° 0 mm 4 m/s 747 mmHg 74%
17:00 +15°C° 0 mm 4 m/s 747 mmHg 75%
18:00 +15°C° 0 mm 4 m/s 747 mmHg 76%
19:00 +15°C° 0 mm 4 m/s 747 mmHg 78%
20:00 +15°C° 0 mm 4 m/s 747 mmHg 80%
21:00 +14°C° 0 mm 3 m/s 747 mmHg 81%
22:00 +14°C° 0 mm 3 m/s 747 mmHg 83%
23:00 +13°C° 0 mm 3 m/s 747 mmHg 86%

1 Octombrie, Joi

Timp Temperatura Precipitaţii Vânt Presiune Umiditate
00:00 +13°C° 0 mm 3 m/s 746 mmHg 89%
01:00 +12°C° 0 mm 3 m/s 746 mmHg 91%
02:00 +12°C° 0 mm 3 m/s 746 mmHg 91%
03:00 +12°C° 0 mm 3 m/s 746 mmHg 90%
04:00 +12°C° 0 mm 3 m/s 746 mmHg 90%
05:00 +12°C° 0 mm 3 m/s 746 mmHg 88%
06:00 +12°C° 0 mm 3 m/s 745 mmHg 87%
07:00 +12°C° 0 mm 3 m/s 745 mmHg 86%
08:00 +13°C° 0 mm 3 m/s 745 mmHg 79%
09:00 +14°C° 0 mm 3 m/s 745 mmHg 73%
10:00 +16°C° 0 mm 3 m/s 744 mmHg 66%
11:00 +17°C° 0 mm 3 m/s 744 mmHg 62%
12:00 +18°C° 0 mm 3 m/s 744 mmHg 57%
13:00 +19°C° 0 mm 3 m/s 743 mmHg 53%
14:00 +19°C° 0 mm 3 m/s 743 mmHg 56%
15:00 +18°C° 0 mm 4 m/s 743 mmHg 58%
16:00 +18°C° 0 mm 4 m/s 743 mmHg 61%
17:00 +17°C° 0 mm 4 m/s 743 mmHg 66%
18:00 +14°C° 0 mm 3 m/s 743 mmHg 71%
19:00 +13°C° 0 mm 3 m/s 743 mmHg 77%
20:00 +13°C° 0 mm 3 m/s 743 mmHg 79%
21:00 +14°C° 0 mm 2 m/s 743 mmHg 82%
22:00 +13°C° 0 mm 2 m/s 743 mmHg 84%
23:00 +13°C° 0 mm 2 m/s 743 mmHg 86%

2 Octombrie, Vineri

Timp Temperatura Precipitaţii Vânt Presiune Umiditate
00:00 +13°C° 0 mm 2 m/s 742 mmHg 87%
01:00 +13°C° 0 mm 2 m/s 742 mmHg 89%
02:00 +12°C° 0 mm 2 m/s 742 mmHg 91%
03:00 +12°C° 0 mm 2 m/s 742 mmHg 93%
04:00 +11°C° 0 mm 3 m/s 742 mmHg 95%
05:00 +11°C° 0 mm 3 m/s 742 mmHg 94%
06:00 +11°C° 0 mm 3 m/s 741 mmHg 93%
07:00 +11°C° 0 mm 3 m/s 741 mmHg 92%
08:00 +12°C° 0 mm 4 m/s 741 mmHg 88%
09:00 +13°C° 0 mm 4 m/s 741 mmHg 83%
10:00 +14°C° 0 mm 4 m/s 741 mmHg 79%
11:00 +15°C° 0 mm 4 m/s 741 mmHg 78%
12:00 +15°C° 0 mm 4 m/s 741 mmHg 77%
13:00 +15°C° 0 mm 5 m/s 740 mmHg 76%
14:00 +15°C° 0 mm 4 m/s 740 mmHg 75%
15:00 +15°C° 0 mm 4 m/s 740 mmHg 74%
16:00 +15°C° 0 mm 4 m/s 740 mmHg 72%
17:00 +14°C° 0 mm 4 m/s 740 mmHg 77%
18:00 +13°C° 0 mm 3 m/s 740 mmHg 81%
19:00 +12°C° 0 mm 3 m/s 740 mmHg 86%
20:00 +12°C° 0 mm 3 m/s 740 mmHg 87%
21:00 +12°C° 0 mm 3 m/s 740 mmHg 87%
22:00 +12°C° 0 mm 3 m/s 740 mmHg 88%
23:00 +11°C° 0 mm 3 m/s 740 mmHg 90%

3 Octombrie, Sâmbătă

Timp Temperatura Precipitaţii Vânt Presiune Umiditate
00:00 +11°C° 0 mm 3 m/s 739 mmHg 91%
01:00 +11°C° 0 mm 3 m/s 739 mmHg 93%
02:00 +11°C° 0 mm 3 m/s 739 mmHg 92%
03:00 +11°C° 0 mm 4 m/s 738 mmHg 92%
04:00 +11°C° 0 mm 4 m/s 738 mmHg 92%
05:00 +10°C° 0 mm 5 m/s 738 mmHg 90%
06:00 +12°C° 0 mm 5 m/s 738 mmHg 89%
07:00 +12°C° 0 mm 5 m/s 737 mmHg 87%
08:00 +14°C° 0 mm 6 m/s 737 mmHg 82%
09:00 +15°C° 0 mm 7 m/s 737 mmHg 77%
10:00 +17°C° 0 mm 7 m/s 736 mmHg 72%
11:00 +18°C° 0 mm 7 m/s 736 mmHg 71%
12:00 +18°C° 0 mm 7 m/s 735 mmHg 69%
13:00 +20°C° 0 mm 6 m/s 735 mmHg 67%
14:00 +20°C° 0 mm 6 m/s 735 mmHg 66%
15:00 +20°C° 0 mm 5 m/s 735 mmHg 66%
16:00 +20°C° 0 mm 5 m/s 734 mmHg 65%
17:00 +20°C° 0 mm 6 m/s 734 mmHg 63%
18:00 +20°C° 0 mm 7 m/s 734 mmHg 62%
19:00 +20°C° 0 mm 7 m/s 734 mmHg 60%
20:00 +20°C° 0 mm 8 m/s 734 mmHg 62%
21:00 +20°C° 0 mm 8 m/s 734 mmHg 63%
22:00 +20°C° 0 mm 8 m/s 733 mmHg 64%
23:00 +20°C° 0 mm 8 m/s 733 mmHg 64%
Arată mai mult